Powrót do katalogu

SCOUT X-4 R/B

AktywnyVLEO
NORAD 1815·ROCKET BODY·🇺🇸 United States

Wystrzelony Dec 6, 1965 z Vandenberg Space Force Base

Loading…

Następne Przeloty (najbliższe 24 godziny)

TLE

ŚwieżeSource: Space-Track

Epoka: Sep 14, 2026, 11:50 UTC

1 01815U 65101B   26257.49331905  .00001951  00000-0  19313-3 0  9990
2 01815  75.8413 189.2497 0006840 264.4583  95.5830 14.92267547 81540

Śledź SCOUT X-4 R/B w czasie rzeczywistym z AllMySat

Download on the App Store